CW7220 Weather Reports


Display with metric or nautical units.
time (UTC)temp
F
wind
direction
speed
MPH
gust
MPH
rain 1hr
in
rain 24hr
in
rain mn
in
humidity
%
barometer
mb
20260505223918 63 346 5.0 0.0 0.00 0.00 0.00 85 1011.7
20260505222933 63 5 6.0 0.0 0.00 0.00 0.00 86 1011.6
20260505221925 64 10 2.0 0.0 0.00 0.00 0.00 88 1011.4
20260505220919 64 255 3.0 0.0 0.00 0.00 0.00 87 1011.1
20260505215931 64 237 4.0 0.0 0.00 0.00 0.00 87 1011.1
20260505214927 64 228 5.0 0.0 0.00 0.00 0.00 87 1011.3
20260505212934 65 242 5.0 0.0 0.00 0.00 0.00 87 1011.4
20260505211926 65 233 6.0 0.0 0.00 0.00 0.00 86 1011.4
20260505210922 65 236 6.0 0.0 0.00 0.00 0.00 86 1011.5
20260505204927 65 228 5.0 0.0 0.00 0.00 0.00 84 1011.6
20260505203923 65 229 5.0 0.0 0.00 0.00 0.00 84 1011.5
20260505201930 65 239 4.0 0.0 0.00 0.00 0.00 85 1011.3
20260505200921 65 238 4.0 0.0 0.00 0.00 0.00 85 1011.2
20260505195936 66 242 4.0 0.0 0.00 0.00 0.00 85 1011.1
20260505194928 66 236 5.0 0.0 0.00 0.00 0.00 84 1011.0
20260505193921 66 244 4.0 0.0 0.00 0.00 0.00 84 1010.9
20260505192932 66 225 6.0 0.0 0.00 0.00 0.00 84 1010.7
20260505191929 66 232 7.0 0.0 0.00 0.00 0.00 83 1010.6
20260505190921 66 229 6.0 0.0 0.00 0.00 0.00 82 1010.5
20260505185931 67 248 5.0 0.0 0.00 0.00 0.00 82 1010.4
20260505182917 67 231 7.0 0.0 0.00 0.00 0.00 82 1010.2
20260505181929 67 254 8.0 0.0 0.00 0.00 0.00 82 1010.2
20260505175936 67 215 9.0 0.0 0.00 0.00 0.00 83 1010.0
20260505173921 68 238 10.0 0.0 0.00 0.00 0.00 81 1010.0
20260505172919 69 265 10.0 0.0 0.00 0.00 0.00 78 1010.0
20260505171931 69 248 10.0 0.0 0.00 0.00 0.00 76 1009.9
20260505170924 69 228 10.0 0.0 0.00 0.00 0.00 76 1010.0
20260505165935 70 254 10.0 0.0 0.00 0.00 0.00 75 1010.0
20260505164931 70 232 9.0 0.0 0.00 0.00 0.00 71 1010.0
20260505163923 70 213 9.0 0.0 0.00 0.00 0.00 70 1010.0
20260505162935 71 216 9.0 0.0 0.00 0.00 0.00 69 1010.0
20260505161924 71 217 7.0 0.0 0.00 0.00 0.00 71 1010.0
20260505160921 72 212 7.0 0.0 0.00 0.00 0.00 71 1010.0
20260505151931 76 296 7.0 0.0 0.00 0.00 0.00 33 1010.0
20260505150924 75 293 8.0 0.0 0.00 0.00 0.00 35 1010.0
20260505124930 73 312 7.0 0.0 0.00 0.00 0.00 57 1010.6
20260505123925 72 292 6.0 0.0 0.00 0.00 0.00 64 1010.8
20260505122923 72 311 7.0 0.0 0.00 0.00 0.00 64 1010.7
20260505121933 72 277 7.0 0.0 0.00 0.00 0.00 64 1010.9
20260505120925 72 280 5.0 0.0 0.00 0.00 0.00 67 1010.9
20260505115917 72 273 6.0 0.0 0.00 0.00 0.00 69 1011.0
20260505114934 71 235 7.0 0.0 0.00 0.00 0.00 71 1011.0
20260505113925 72 248 6.0 0.0 0.00 0.00 0.00 70 1010.9
20260505112917 71 299 7.0 0.0 0.00 0.00 0.00 71 1011.0
20260505111931 71 254 7.0 0.0 0.00 0.00 0.00 71 1011.0
20260505110926 71 330 6.0 0.0 0.00 0.00 0.00 69 1011.2
20260505101936 71 275 5.0 0.0 0.00 0.00 0.00 76 1011.3
20260505100928 71 132 5.0 0.0 0.00 0.00 0.00 78 1011.1
20260505094935 70 194 8.0 0.0 0.00 0.00 0.00 81 1011.1
20260505093926 69 178 8.0 0.0 0.00 0.00 0.00 81 1011.0
20260505082929 66 234 6.0 0.0 0.00 0.00 0.00 87 1011.1
20260505081922 66 207 6.0 0.0 0.00 0.00 0.00 88 1011.1
20260505080935 66 224 8.0 0.0 0.00 0.00 0.00 88 1011.2
20260505075928 65 229 7.0 0.0 0.00 0.00 0.00 88 1011.2
20260505074920 65 213 7.0 0.0 0.00 0.00 0.00 89 1011.3
20260505072927 65 213 7.0 0.0 0.00 0.00 0.00 89 1011.5
20260505071922 65 212 6.0 0.0 0.00 0.00 0.00 89 1011.5
20260505070932 65 232 7.0 0.0 0.00 0.00 0.00 89 1011.5
20260505065925 65 219 6.0 0.0 0.00 0.00 0.00 89 1011.5
20260505061920 64 198 5.0 0.0 0.00 0.00 0.00 90 1011.3
20260505055927 64 191 6.0 0.0 0.00 0.00 0.00 89 1011.2
20260505054919 64 180 4.0 0.0 0.00 0.00 0.00 89 1011.2
20260505053931 64 205 4.0 0.0 0.00 0.00 0.00 89 1011.2
20260505052923 64 238 4.0 0.0 0.00 0.00 0.00 90 1011.1
20260505051919 64 220 4.0 0.0 0.00 0.00 0.00 90 1011.2
20260505050932 64 202 5.0 0.0 0.00 0.00 0.00 90 1011.2
20260505040917 64 214 4.0 0.0 0.00 0.00 0.00 89 1011.1
20260505035928 63 229 3.0 0.0 0.00 0.00 0.00 89 1011.1
20260505034919 63 219 3.0 0.0 0.00 0.00 0.00 89 1011.1
20260505033931 63 225 3.0 0.0 0.00 0.00 0.00 89 1011.3
20260505031922 63 248 4.0 0.0 0.00 0.00 0.00 89 1011.3
20260505030932 63 223 4.0 0.0 0.00 0.00 0.00 89 1011.2
20260505025935 63 239 5.0 0.0 0.00 0.00 0.00 88 1011.2
20260505024930 63 232 6.0 0.0 0.00 0.00 0.00 88 1011.2
20260505023922 63 233 6.0 0.0 0.00 0.00 0.00 88 1011.2
20260505021928 63 229 6.0 0.0 0.00 0.00 0.00 88 1011.3
20260505020925 63 203 8.0 0.0 0.00 0.00 0.00 88 1011.4
20260505015936 64 228 8.0 0.0 0.00 0.00 0.00 87 1011.5
20260505014929 64 205 8.0 0.0 0.00 0.00 0.00 87 1011.6
20260505013925 64 225 9.0 0.0 0.00 0.00 0.00 86 1011.7
20260505012918 64 219 8.0 0.0 0.00 0.00 0.00 86 1011.8
20260505011930 64 223 9.0 0.0 0.00 0.00 0.00 86 1011.9
20260505010922 64 217 9.0 0.0 0.00 0.00 0.00 87 1012.1
20260505003924 64 202 7.0 0.0 0.00 0.00 0.00 88 1012.5
20260505002918 64 221 6.0 0.0 0.00 0.00 0.00 88 1012.7
20260505001935 64 211 7.0 0.0 0.00 0.00 0.00 88 1012.6
20260505000928 64 214 6.0 0.0 0.00 0.00 0.00 88 1012.7
20260504235919 64 222 7.0 0.0 0.00 0.00 0.00 88 1012.8
20260504234932 64 224 7.0 0.0 0.00 0.00 0.00 88 1012.9
20260504233928 64 215 7.0 0.0 0.00 0.00 0.00 88 1012.9
20260504232920 64 205 7.0 0.0 0.00 0.00 0.00 88 1013.0
20260504231931 64 203 6.0 0.0 0.00 0.00 0.00 89 1013.0
20260504225919 65 206 6.0 0.0 0.00 0.00 0.00 89 1013.0
20260504224931 65 191 6.0 0.0 0.00 0.00 0.00 89 1012.9